Tracking 33068 objects as of 24-Jan-2026
HD Live streaming from Space Station
objects crossing your sky now

STARLINK-11287

Track STARLINK-11287 now!
10-day predictions
STARLINK-11287 is classified as:


NORAD ID: 60998
Int'l Code: 2024-158J
Perigee: 366.2 km
Apogee: 367.6 km
Inclination: 53.2 °
Period: 91.7 minutes
Semi major axis: 6737 km
RCS: Unknown
Launch date: September 5, 2024
Source: United States (US)
Launch site: AIR FORCE EASTERN TEST RANGE (AFETR)
Your satellite tracking list
Your tracking list is empty




NASA's NSSDC Master Catalog

Two Line Element Set (TLE):
1 60998U 24158J   26023.61665923  .00000314  00000-0  74456-5 0  9992
2 60998  53.1593 143.5873 0001004  86.2886 273.8246 15.69707066 80506
Source of the keplerian elements: AFSPC